SCOUT A DEB, 2580

Orbit data source: Space-Track

SCOUT A DEB, 2580 is space debris in LEO originally from a launch on Thu, 18 Aug 1966 UTC launched from the Air Force Western Test Range (AFWTR). Debris objects in space refer to the collection of defunct objects orbiting the Earth. Examples of debris include non-operational satellites, rocket bodies, and fragments generated from explosions, collisions, or faulty payload assembly.

Loading next visibility...
Identifier
2580, 1966-076C
Orbit
LEO
Country
Flag of USUS
Related business
Manufacturer
Unknown
Mission
Spacecraft
Bus & Motor
Unknown
Mass
Unknown
Launch date (UTC)
1966-08-18 (60 years ago)
Launch vehicle
Unknown
Launch site
Air Force Western Test Range (AFWTR)
Object type
Payload
Rocket body
Debris
Shape & HBR
Unknown shape, 0.1 m
Radar Cross Section
Medium (>0.1 m² and <1 m²)

Expand to show TLE details & history
Last TLE update: 22 hours ago

TLE from 22 hours ago
0 SCOUT A DEB
1 02580U 66076C   26253.58980358  .00000166  00000-0  14490-3 0  9998
2 02580  89.1298 278.7547 0096306  66.5516  62.6110 13.78767791  3653
Epoch: 2026-09-10T14:09Z
TLE epoch observation values (Epoch: 2026-09-10T14:09:19.029Z)
Latitude
49.93977°
Longitude
-104.2295°
Altitude
944.273 km
Speed
7.4 km/s
True Right ascension
06h 30m 54s
True Declination
49° 46' 29"
Sunlit
Object was in daylight at epoch
Visualization orbit readout
Latitude
Unknown
Longitude
Unknown
Altitude
Unknown
Speed
Unknown
Apparent Right ascension
Unknown
Apparent Declination
Unknown
Sunlit
N/A
Visualization observer readout
Local Sidereal Time
04:28:20
Azimuth
Unknown
Elevation
Unknown
Doppler factor
Unknown
Orbital elements
Apogee altitude
1,035.991 km
Perigee altitude
894.549 km
Semi-major axis
7,343.407 km
Eccentricity
0.00963
Inclination
89.1298°
RAAN
278.7547°
Arg. of periapsis
66.5516°
True anomaly
63.59628°
Mean anomaly
62.611°
Eccentric anomaly
63.1031°
Mean motion
3.44903 °/min
Orbital period
104.38 mins
BSTAR
0.0001449
Loading maneuver chart data...
Computing Atmospheric mass density...
Loading historical data...
Loading historical data...
Loading historical data...
Loading historical data...
Loading historical data...
Loading historical data...
Loading historical data...

Documentation

Showing up to 5 results
|